Weather History for KLLJ - September, 2013

Change the Weather History Date:

Sunday, September 8, 2013

  Actual Average Record
Temperature  
Mean Temperature 65 °F 59 °F  
Max Temperature 83 °F 76 °F 89 °F (1955)
Min Temperature 47 °F 41 °F 28 °F (1922)
Cooling Degree Days 0 0  
Month to date cooling degree days 22 4  
Year to date cooling degree days 412 246  
Growing Degree Days 14 (Base 50)    
Moisture  
Dew Point 36 °F    
Average Humidity 40    
Maximum Humidity 65    
Minimum Humidity 15    
Precipitation  
Precipitation 0.00 in 0.03 in 0.50 in (1918)
Month to date precipitation 0.24 0.21  
Year to date precipitation 2.75 7.60  
Sea Level Pressure  
Sea Level Pressure 29.88 in    
Wind  
Wind Speed 5 mph (WNW)    
Max Wind Speed 21 mph    
Max Gust Speed 30 mph    
Visibility 10 miles    
Events      
T = Trace of Precipitation, MM = Missing Value Source: NWS Daily Summary

Daily Weather History Graph

Daily Weather History Graph

Search for Another Location

Airport or City:

Trip Planner

Search our weather history database for the weather conditions in past years. The results will help you decide how hot, cold, wet, or windy it might be!

Date:

Astronomy

Sep. 08, 2013 Rise Set
Actual Time 7:08 AM MDT 7:59 PM MDT
Civil Twilight 6:38 AM MDT 8:29 PM MDT
Nautical Twilight 6:03 AM MDT 9:04 PM MDT
Astronomical Twilight 5:26 AM MDT 9:41 PM MDT
Moon 10:40 AM MDT (9/8) 9:27 PM MDT (9/8)
Length of Visible Light 13h 51m
Length of Day
12h 51m
Waxing Crescent, 11% of the Moon is Illuminated
Sep 8
Waxing Crescent
Sep 12
First Quarter
Sep 19
Full
Sep 26
Last Quarter
Oct 4
New

Hourly Weather History & Observations

Time (MDT) Temp. Dew Point Humidity Pressure Visibility Wind Dir Wind Speed Gust Speed Precip Events Conditions
12:55 AM 62.1 °F 32.0 °F 32% 29.91 in 10.0 mi Calm Calm - N/A   Clear
1:55 AM 57.9 °F 34.0 °F 41% 29.92 in 10.0 mi Calm Calm - N/A   Clear
2:55 AM 55.0 °F 34.0 °F 45% 29.92 in 10.0 mi Calm Calm - N/A   Clear
3:55 AM 55.0 °F 33.1 °F 43% 29.91 in 10.0 mi SE 3.5 mph - N/A   Clear
4:55 AM 52.0 °F 34.0 °F 50% 29.92 in 10.0 mi Calm Calm - N/A   Clear
5:55 AM 52.0 °F 35.1 °F 53% 29.93 in 10.0 mi Calm Calm - N/A   Clear
6:55 AM 46.9 °F 36.0 °F 66% 29.96 in 10.0 mi Calm Calm - N/A   Clear
7:55 AM 53.1 °F 35.1 °F 50% 29.96 in 10.0 mi Calm Calm - N/A   Clear
8:55 AM 57.0 °F 36.0 °F 45% 29.95 in 10.0 mi Calm Calm - N/A   Clear
9:55 AM 61.0 °F 39.9 °F 46% 29.95 in 10.0 mi Calm Calm - N/A   Partly Cloudy
10:55 AM 66.0 °F 41.0 °F 40% 29.93 in 10.0 mi Calm Calm - N/A   Partly Cloudy
11:55 AM 68.0 °F 42.1 °F 39% 29.90 in 10.0 mi ENE 3.5 mph - N/A   Scattered Clouds
12:55 PM 72.0 °F 43.0 °F 35% 29.86 in 10.0 mi Calm Calm - N/A   Partly Cloudy
1:55 PM 78.1 °F 35.1 °F 21% 29.83 in 10.0 mi NW 10.4 mph - N/A   Mostly Cloudy
2:55 PM 80.1 °F 30.9 °F 17% 29.80 in 10.0 mi West 13.8 mph 21.9 mph N/A   Clear
3:55 PM 82.0 °F 30.0 °F 15% 29.77 in 10.0 mi WSW 10.4 mph 24.2 mph N/A   Clear
4:55 PM 80.1 °F 30.9 °F 17% 29.78 in 10.0 mi West 13.8 mph - N/A   Clear
5:55 PM 80.1 °F 30.0 °F 16% 29.77 in 10.0 mi West 10.4 mph - N/A   Partly Cloudy
6:55 PM 77.0 °F 30.0 °F 18% 29.79 in 10.0 mi WSW 11.5 mph - N/A   Clear
7:55 PM 69.1 °F 36.0 °F 30% 29.81 in 10.0 mi WNW 9.2 mph - N/A   Clear
8:55 PM 66.0 °F 35.1 °F 32% 29.83 in 10.0 mi WNW 8.1 mph - N/A   Clear
9:55 PM 64.0 °F 41.0 °F 43% 29.86 in 10.0 mi North 10.4 mph - N/A   Clear
10:55 PM 63.0 °F 39.9 °F 43% 29.86 in 10.0 mi North 13.8 mph - N/A   Clear
11:55 PM 59.0 °F 39.9 °F 49% 29.89 in 10.0 mi North 5.8 mph - N/A   Clear